FW4018 Weather Reports


time (UTC)temp
F
wind
direction
speed
knots
gust
knots
rain 1hr
in
rain 24hr
in
rain mn
in
humidity
%
barometer
mb
20260507075516 66 30 2.6 4.3 0.00 0.01 0.00 73 1019.7
20260507074556 65 36 1.7 4.3 0.00 0.01 0.00 75 1019.6
20260507073516 64 58 2.6 6.1 0.00 0.01 0.00 76 1019.7
20260507072536 64 33 0.9 3.5 0.00 0.01 0.00 80 1019.7
20260507071516 63 52 0.9 4.3 0.00 0.01 0.00 80 1019.6
20260507070516 63 72 0.9 1.7 0.00 0.01 0.00 81 1019.5
20260507065536 62 58 0.9 3.5 0.00 0.01 0.00 84 1019.6
20260507064536 61 63 0.9 3.5 0.00 0.01 0.00 89 1019.6
20260507063516 60 326 0.9 2.6 0.00 0.01 0.00 91 1019.6
20260507062516 60 307 0.9 3.5 0.00 0.01 0.00 91 1019.6
20260507061516 59 322 0.9 2.6 0.00 0.01 0.00 94 1019.6
20260507060536 59 51 1.7 3.5 0.00 0.01 0.00 96 1019.6
20260507055517 58 302 1.7 3.5 0.00 0.01 0.00 99 1019.5
20260507054516 58 323 1.7 3.5 0.00 0.01 0.00 100 1019.7
20260507053516 57 340 0.9 3.5 0.00 0.01 0.00 100 1019.6
20260507052516 57 305 0.9 1.7 0.00 0.01 0.00 100 1019.6
20260507051516 56 338 0.9 3.5 0.00 0.01 0.00 100 1019.6
20260507050516 56 305 1.7 2.6 0.00 0.01 0.00 100 1019.5
20260507045516 55 321 0.9 2.6 0.00 0.01 0.00 100 1019.5
20260507044516 55 275 0.9 2.6 0.00 0.01 0.00 100 1019.6
20260507043516 54 320 0.9 2.6 0.00 0.01 0.00 100 1019.3
20260507042516 54 294 0.0 2.6 0.00 0.01 0.00 100 1019.2
20260507041516 53 314 0.9 2.6 0.00 0.01 0.00 100 1019.1
20260507040516 53 313 0.9 1.7 0.00 0.01 0.00 100 1019.1
20260507035516 52 285 0.9 1.7 0.00 0.01 0.00 100 1019.0
20260507034556 52 309 0.0 0.9 0.00 0.01 0.00 100 1019.0
20260507033516 52 320 0.0 0.9 0.00 0.01 0.00 100 1019.0
20260507032517 52 322 0.0 0.9 0.00 0.01 0.00 100 1018.8
20260507031516 51 320 0.0 1.7 0.00 0.01 0.00 100 1018.7
20260507030516 51 294 0.0 0.9 0.00 0.01 0.00 100 1018.6
20260507025516 51 313 0.0 1.7 0.00 0.01 0.00 100 1018.6
20260507024516 51 308 0.0 0.9 0.00 0.01 0.00 100 1018.6
20260507023556 51 250 0.0 0.0 0.00 0.01 0.00 100 1018.5
20260507022516 51 314 0.0 0.0 0.00 0.01 0.00 100 1018.4
20260507021516 51 319 0.0 0.0 0.00 0.01 0.00 100 1018.3
20260507020536 51 252 0.0 0.0 0.00 0.01 0.00 100 1018.3
20260507015516 50 308 0.0 0.0 0.00 0.01 0.00 100 1018.3
20260507014516 50 241 0.0 0.0 0.00 0.01 0.00 100 1018.2
20260507013516 50 0.0 0.0 0.00 0.01 0.00 100 1018.3
20260507012536 50 0.0 0.0 0.00 0.01 0.00 100 1018.2
20260507011516 50 218 0.0 0.0 0.00 0.01 0.00 100 1018.2
20260507010536 49 214 0.0 0.0 0.00 0.01 0.00 100 1018.2
20260507005516 49 307 0.0 0.9 0.00 0.01 0.00 100 1018.1
20260507004536 49 0.0 0.0 0.00 0.01 0.00 100 1018.1
20260507003516 50 0.0 0.0 0.00 0.01 0.00 100 1017.9
20260507002537 50 0.0 0.0 0.00 0.01 0.00 100 1017.8
20260507001517 50 0.0 0.0 0.00 0.01 0.00 100 1017.7
20260507000517 50 247 0.0 0.0 0.00 0.01 0.00 100 1017.7
20260506235516 51 292 0.0 0.9 0.00 0.01 0.00 100 1017.6
20260506234516 51 267 0.0 0.0 0.00 0.01 0.00 100 1017.4
20260506233516 51 311 0.0 1.7 0.00 0.01 0.00 100 1017.2
20260506232536 51 306 0.0 1.7 0.00 0.01 0.00 100 1017.3
20260506231516 51 324 0.9 3.5 0.00 0.01 0.00 100 1017.2
20260506230516 51 319 0.9 1.7 0.00 0.01 0.00 100 1017.2
20260506225516 52 320 0.9 2.6 0.00 0.01 0.00 100 1017.1
20260506224516 52 330 0.0 1.7 0.00 0.01 0.00 100 1017.2
20260506223516 52 287 0.0 0.9 0.00 0.01 0.00 100 1017.2
20260506222516 52 308 0.0 0.0 0.00 0.01 0.00 100 1017.3
20260506221516 52 259 0.0 0.0 0.00 0.01 0.00 100 1017.3
20260506220516 52 266 0.0 0.9 0.00 0.01 0.00 100 1017.2
20260506215516 53 317 0.0 0.9 0.00 0.01 0.00 100 1017.2
20260506214516 53 17 0.0 2.6 0.00 0.01 0.00 100 1017.1
20260506213516 53 344 0.9 3.5 0.00 0.01 0.00 100 1017.2
20260506212537 53 348 0.9 3.5 0.00 0.01 0.00 100 1017.1
20260506211516 54 7 0.0 0.9 0.00 0.01 0.00 100 1017.0
20260506210516 54 30 0.0 0.0 0.00 0.01 0.00 100 1017.1
20260506205516 54 38 0.0 0.9 0.00 0.01 0.01 100 1017.1
20260506204536 54 43 0.0 1.7 0.00 0.01 0.01 100 1016.9
20260506203553 55 16 0.0 1.7 0.00 0.01 0.01 100 1016.8
20260506202516 55 15 0.0 1.7 0.00 0.01 0.01 100 1016.7
20260506201536 55 8 0.0 1.7 0.00 0.01 0.01 100 1016.6
20260506200536 55 52 0.0 0.9 0.00 0.01 0.01 100 1016.6
20260506195516 56 29 0.0 1.7 0.00 0.01 0.01 100 1016.6
20260506194516 56 350 0.9 2.6 0.00 0.01 0.01 100 1016.6
20260506193520 56 338 0.0 1.7 0.00 0.01 0.01 100 1016.6
20260506192516 56 316 0.0 0.0 0.00 0.01 0.01 100 1016.5
20260506191516 56 271 0.0 0.0 0.00 0.01 0.01 100 1016.5
20260506190516 56 0.0 0.0 0.00 0.01 0.01 100 1016.5
20260506185516 56 311 0.0 0.9 0.00 0.01 0.01 100 1016.4
20260506184516 57 301 0.0 0.0 0.00 0.01 0.01 100 1016.4
20260506183516 57 308 0.0 0.0 0.00 0.01 0.01 100 1016.4
20260506182516 57 303 0.0 0.9 0.00 0.01 0.01 100 1016.4
20260506181516 58 206 0.0 0.9 0.00 0.01 0.01 100 1016.4
20260506180516 58 225 0.0 0.0 0.00 0.01 0.01 100 1016.3
20260506175536 58 291 0.0 0.9 0.00 0.01 0.01 100 1016.1
20260506174516 59 299 0.0 1.7 0.00 0.01 0.01 100 1016.0
20260506173516 59 308 0.9 2.6 0.00 0.01 0.01 100 1016.0
20260506172516 59 328 1.7 3.5 0.00 0.01 0.01 100 1015.9
20260506171516 60 303 1.7 2.6 0.00 0.01 0.01 100 1015.8
20260506170516 60 310 0.9 2.6 0.01 0.01 0.01 100 1015.8
20260506165516 61 304 0.0 3.5 0.01 0.01 0.01 96 1015.6
20260506164516 62 317 0.9 1.7 0.01 0.01 0.01 89 1015.7
20260506163516 63 305 0.9 3.5 0.01 0.01 0.01 85 1015.7
20260506162516 64 268 0.0 0.9 0.01 0.01 0.01 83 1015.5
20260506161516 65 270 0.9 1.7 0.01 0.01 0.01 78 1015.4
20260506160516 65 318 0.9 1.7 0.00 0.00 0.00 73 1015.4
20260506155516 66 311 0.9 4.3 0.00 0.00 0.00 71 1015.2
20260506154516 66 312 0.9 3.5 0.00 0.00 0.00 70 1015.2
20260506153516 66 290 1.7 4.3 0.00 0.00 0.00 68 1015.1
20260506152517 67 251 1.7 4.3 0.00 0.00 0.00 67 1015.1
20260506151520 67 239 1.7 5.2 0.00 0.00 0.00 65 1015.1
20260506150518 68 244 2.6 6.1 0.00 0.00 0.00 63 1015.0
20260506145526 69 264 1.7 5.2 0.00 0.00 0.00 60 1015.0
20260506144516 71 234 1.7 6.1 0.00 0.00 0.00 58 1014.9
20260506143536 73 268 2.6 5.2 0.00 0.00 0.00 54 1014.9
20260506142516 73 266 0.9 3.5 0.00 0.00 0.00 51 1014.8
20260506141556 72 162 0.9 2.6 0.00 0.00 0.00 54 1014.7
20260506140536 71 100 0.0 0.9 0.00 0.00 0.00 57 1014.7
20260506135537 70 90 0.0 0.9 0.00 0.00 0.00 55 1014.6
20260506134516 71 337 0.9 1.7 0.00 0.00 0.00 54 1014.7
20260506133516 72 76 0.0 0.0 0.00 0.00 0.00 55 1014.7
20260506132517 72 78 0.0 0.9 0.00 0.00 0.00 54 1014.7
20260506131517 74 66 0.9 1.7 0.00 0.00 0.00 53 1014.7
20260506130516 75 87 0.9 1.7 0.00 0.00 0.00 50 1014.7
20260506125516 78 66 1.7 4.3 0.00 0.00 0.00 51 1014.7
20260506124517 79 78 0.9 2.6 0.00 0.00 0.00 51 1014.6
20260506123536 78 70 1.7 4.3 0.00 0.00 0.00 54 1014.5
20260506122516 77 43 1.7 6.1 0.00 0.00 0.00 52 1014.6
20260506121530 76 41 0.0 3.5 0.00 0.00 0.00 57 1014.7
20260506120517 75 14 0.9 1.7 0.00 0.00 0.00 57 1014.8
20260506115536 75 66 1.7 4.3 0.00 0.00 0.00 60 1014.9
20260506114516 74 63 1.7 3.5 0.00 0.00 0.00 64 1014.9
20260506113536 72 48 0.9 3.5 0.00 0.00 0.00 65 1014.9
20260506112516 70 40 0.9 2.6 0.00 0.00 0.00 70 1014.9
20260506111516 69 57 0.0 1.7 0.00 0.00 0.00 67 1015.0
20260506110536 70 71 0.9 1.7 0.00 0.00 0.00 67 1015.0
20260506105516 72 55 0.9 3.5 0.00 0.00 0.00 66 1015.1
20260506104516 71 63 0.9 2.6 0.00 0.00 0.00 66 1015.1
20260506103516 71 298 0.9 2.6 0.00 0.00 0.00 66 1015.0
20260506102516 70 21 1.7 4.3 0.00 0.00 0.00 70 1015.0
20260506101516 69 52 0.0 1.7 0.00 0.00 0.00 72 1015.0
20260506100517 69 265 0.0 0.0 0.00 0.00 0.00 72 1015.0
20260506095516 70 72 0.0 0.9 0.00 0.00 0.00 72 1015.0
20260506094537 71 68 0.0 0.9 0.00 0.00 0.00 72 1015.0
20260506093516 71 94 0.0 2.6 0.00 0.00 0.00 73 1015.1
20260506092516 71 48 1.7 4.3 0.00 0.00 0.00 72 1015.1
20260506091516 69 139 0.9 4.3 0.00 0.00 0.00 82 1015.2
20260506090516 67 88 0.9 2.6 0.00 0.00 0.00 84 1015.2
20260506085516 66 328 0.9 2.6 0.00 0.00 0.00 83 1015.2
20260506084517 65 26 0.9 2.6 0.00 0.00 0.00 87 1015.3
20260506083516 65 344 0.9 1.7 0.00 0.00 0.00 86 1015.4
20260506082516 66 62 0.9 1.7 0.00 0.00 0.00 88 1015.4
20260506081536 65 79 0.9 2.6 0.00 0.00 0.00 93 1015.5
20260506080536 65 54 0.0 1.7 0.00 0.00 0.00 90 1015.5